Location: Oshawa
(43.9000°N, 78.8670°W)
Time: 03:24:46
(UTC-04:00)

CARTOSAT-1 - Visible Passes

Search period start: 31 July 2015 00:00
Search period end: 10 August 2015 00:00
Orbit: 616 x 621 km, 97.9° (Epoch: 30 July)

Date Brightness Start Highest point End Pass type
(mag) Time Alt. Az. Time Alt. Az. Time Alt. Az.
31 Jul 4.2 22:31:12 30° ESE 22:32:42 41° ENE 22:36:47 10° N visible
01 Aug 5.6 00:08:21 18° WSW 00:09:01 19° W 00:12:03 10° NW visible
01 Aug 3.6 22:48:16 43° SE 22:49:27 63° ENE 22:53:44 10° N visible
02 Aug 6.0 00:25:24 12° W 00:26:03 13° W 00:27:50 10° WNW visible
02 Aug 5.8 21:29:54 10° ENE 21:30:44 11° ENE 21:31:47 10° NE visible
02 Aug 3.5 23:05:20 56° S 23:06:14 86° WSW 23:10:34 10° NNW visible
03 Aug 5.5 21:45:15 11° E 21:47:21 15° ENE 21:49:57 10° NNE visible
03 Aug 3.9 23:22:24 50° SW 23:23:03 56° W 23:27:19 10° NNW visible
04 Aug 5.1 22:02:19 17° E 22:04:01 22° ENE 22:07:22 10° NNE visible
04 Aug 4.5 23:39:27 36° WSW 23:39:56 37° W 23:43:56 10° NNW visible
05 Aug 4.6 22:19:23 26° ESE 22:20:42 31° ENE 22:24:33 10° N visible
05 Aug 5.2 23:56:31 25° WSW 23:56:51 25° W 00:00:23 10° NW visible
06 Aug 4.0 22:36:27 39° ESE 22:37:25 46° ENE 22:41:35 10° N visible
07 Aug 5.7 00:13:35 17° W 00:13:49 17° W 00:16:35 10° NW visible
07 Aug 3.5 22:53:31 58° SE 22:54:11 70° ENE 22:58:29 10° N visible
08 Aug 6.2 00:30:39 11° W 00:30:51 11° W 00:32:02 10° WNW visible
08 Aug 5.7 21:33:57 10° E 21:35:25 12° ENE 21:37:04 10° NE visible
08 Aug 3.5 23:10:35 70° SSW 23:10:58 77° WSW 23:15:18 10° NNW visible
09 Aug 5.4 21:50:31 14° E 21:52:03 17° ENE 21:54:53 10° NNE visible
09 Aug 4.1 23:27:39 50° WSW 23:27:48 50° W 23:32:01 10° NNW visible
